Hourly Data Report for December 24, 2017

ST. JOHN'S INTL A
NEWFOUNDLAND

47°37'07.000" N
52°45'09.000" W
140.50 m
8403505
71801
YYT

Download Data

Hourly Data (December 2017)
Hourly Data Report for December 24, 2017
TIME
LST
Temp Definition
°C
Dew Point Definition
°C
Rel Hum Definition
%
Precip. Amount Definition
mm

Wind Dir Definition
10's deg

Wind Spd Definition
km/h
Visibility Definition
km
Stn Press Definition
kPa
Hmdx Definition


Wind Chill Definition


Weather Definition


00:30 -4.8 -6.5 88   17 6 24.1 101.12   -8 LegendNANA
01:30 -3.3 -5.2 87   16 21 24.1 100.99   -10 LegendNANA
02:30 -1.9 -3.9 86   17 25 8.1 100.83   -8 Snow
03:30 -1.7 -2.4 95   17 41 2.0 100.60   -10 Snow,Blowing Snow
04:30 -1.2 -1.8 96   15 48 4.0 100.27   -10 Ice Pellets,Blowing Snow
05:30 -0.4 -0.8 97   15 55 8.1 99.95   -9 Freezing Rain, Fog
06:30 0.1 -0.2 98   16 63 8.1 99.70     Rain, Fog
07:30 0.8 0.6 99   17 63 4.8 99.45     Rain, Fog
08:30 2.3 2.1 98   18 59 16.1 99.21     Rain
09:30 4.1 3.8 98   19 46 8.1 99.06     Rain, Fog
10:30 8.1 7.7 97   22 52 19.3 98.94     Rain
11:30 8.8 8.3 96   23 47 19.3 98.76     Rain
12:30 9.1 8.0 93   25 57 19.3 98.66     Rain
13:30 8.0 7.3 96   25 50 19.3 98.60     LegendNANA
14:30 6.8 6.6 98   26 50 3.2 98.65     Fog
15:30 6.1 5.8 98   26 48 24.1 98.75     LegendNANA
16:30 5.2 4.3 94   26 47 24.1 98.81     LegendNANA
17:30 3.4 2.2 92   27 37 24.1 98.91     Mostly Cloudy
18:30 1.7 0.8 93   27 41 24.1 99.12     LegendNANA
19:30 1.5 0.4 92   26 35 24.1 99.27     LegendNANA
20:30 1.0 0.1 93   27 32 24.1 99.39     Cloudy
21:30 0.8 -0.2 92   27 44 24.1 99.44     LegendNANA
22:30 0.6 -0.9 90   28 43 24.1 99.53     LegendNANA
23:30 -0.5 -3.0 83   29 54 24.1 99.62   -9 Mainly Clear

Notes on Data Quality.

Legend

  • E = Estimated
  • M = Missing
  • NA = Not Available*
  • [empty] = Indicates an unobserved value
Date modified: